Location: Bednik
(45.3500°N, 16.3833°E)
Time: 16:12:39
(UTC+00:00)

Cosmos 1933 Rocket - Pass Details

Date: 08 August 2020
Orbit: 606 x 630 km, 82.5° (Epoch: 18 September)

Event Time Altitude Azimuth Distance (km) Brightness Sun altitude
Exits shadow 20:24:17 46° 143° (SE) 834 3.7 -19.4°
Maximum altitude 20:25:15 58° 95° (E) 725 3.6 -19.5°
Drops below altitude 10° 20:29:37 10° 16° (NNE) 2,007 6.6 -20.0°
Sets 20:31:53 0° 13° (NNE) 2,922 7.6 -20.2°
